Theta_e
311 310 310 310 311 312 312 312 312 313 314 312 312 313 313 314 313 314 319 321 325 326 326 326 327 328 332 335 335 337 336 342 342 343 346 348 347 344 341 340 340 345 345 349
309 310 312 313 313 313 312 312 312 313 313 313 312 312 312 313 313 313 314 318 322 325 325 325 326 327 329 337 337 335 335 336 337 336 337 338 339 338 336 336 343 344 346 347
310 311 312 312 311 312 312 311 311 312 312 312 312 312 312 312 313 314 314 315 320 324 326 326 326 326 330 338 338 336 335 334 334 334 333 336 343 340 343 343 345 345 347 349
309 310 312 312 312 312 313 314 315 314 311 311 312 312 311 312 312 312 313 315 316 320 323 324 325 326 336 341 338 335 335 334 333 332 331 333 341 344 341 342 347 348 349 348
308 308 310 311 312 315 315 314 314 314 312 309 310 309 310 310 311 312 312 314 316 318 321 323 323 324 329 337 337 335 333 333 333 330 331 334 344 343 344 347 349 349 349 349
309 309 313 315 314 314 313 313 313 311 309 310 309 310 310 309 310 311 312 313 314 317 318 322 321 324 326 332 336 333 332 331 330 331 334 335 338 341 346 351 350 349 349 348
310 309 314 314 313 312 311 313 316 315 313 313 311 311 310 311 313 314 314 314 314 314 315 318 323 322 324 328 332 333 331 331 331 331 333 335 336 339 345 349 351 350 349 348
310 310 309 314 313 311 312 314 319 318 313 312 312 314 312 312 313 314 314 314 314 315 315 318 321 322 321 326 328 330 331 330 331 333 336 338 342 341 347 351 351 349 348 347
311 312 311 310 310 310 310 311 310 312 311 313 312 313 313 315 318 319 318 317 317 316 317 323 320 319 320 323 325 326 326 329 330 335 341 344 342 344 347 352 350 349 348 346
311 310 310 310 311 311 311 310 312 313 316 316 313 312 313 319 319 317 317 315 316 317 319 322 322 325 335 338 338 337 334 334 337 342 346 348 343 348 351 352 350 349 347 345
310 312 313 310 311 312 313 313 316 317 319 320 317 314 320 318 317 317 315 315 316 318 319 320 321 333 337 337 337 338 335 338 341 344 349 349 349 349 354 350 351 349 347 345
312 311 311 311 310 314 315 316 314 318 319 318 318 317 317 316 315 316 315 315 318 320 318 320 336 337 336 337 337 338 338 340 344 349 350 349 351 354 352 351 348 349 349 347
313 312 314 311 311 312 313 312 312 312 312 316 318 315 313 315 315 316 317 317 318 319 318 317 322 336 334 335 337 339 348 349 349 350 351 352 350 351 348 344 343 344 343 341
313 313 313 314 313 312 314 313 312 313 315 314 315 314 316 317 316 316 315 315 316 316 316 316 318 332 336 340 339 346 347 349 349 348 349 348 346 346 344 341 339 339 337 337
313 315 315 314 313 313 312 313 313 314 313 315 316 317 317 316 315 316 316 316 316 316 315 316 318 324 337 340 341 345 347 347 347 347 346 345 345 343 341 339 338 338 337 336
313 317 315 316 313 314 315 314 314 313 313 314 314 316 315 316 316 316 316 317 316 316 318 315 330 332 336 340 342 344 346 346 345 345 344 344 343 341 340 338 338 337 335 335
315 317 314 314 313 314 315 318 317 315 314 314 314 315 314 314 315 316 317 317 322 323 322 318 334 334 335 337 340 343 344 344 344 343 342 340 339 338 336 336 336 334 333 333
316 316 315 316 315 318 317 315 315 315 314 313 314 314 313 313 314 314 314 320 321 319 320 321 328 330 334 332 338 343 342 342 341 340 338 337 338 338 338 335 334 333 333 332
316 315 317 314 313 315 315 316 316 316 314 313 314 314 314 314 315 315 319 317 317 317 318 319 321 328 332 330 332 341 340 338 337 336 336 337 338 338 336 334 333 335 334 333
311 309 313 316 317 312 314 314 313 312 312 312 313 314 315 313 316 316 314 314 316 316 317 318 319 323 331 333 335 338 337 336 335 335 335 336 337 337 335 334 334 334 333 332
318 315 315 314 315 315 316 315 311 313 309 313 313 312 314 314 313 312 312 314 314 315 316 317 320 323 330 334 338 338 336 335 334 334 334 335 335 335 335 334 334 335 335 334
314 317 314 317 314 315 315 314 318 313 313 313 313 312 312 311 311 311 312 313 314 314 315 318 319 322 330 333 337 339 337 334 333 333 336 336 335 334 334 335 335 335 335 334
313 317 318 317 312 316 316 315 313 312 313 313 314 312 313 310 311 311 311 313 313 314 315 317 319 321 330 331 335 339 338 333 332 335 335 335 335 336 336 335 336 336 334 333
315 313 314 315 316 317 316 315 315 314 313 311 310 310 310 311 312 312 311 312 313 314 315 317 320 326 332 333 336 339 339 331 334 334 334 335 335 336 335 335 334 334 334 333
312 313 317 315 316 315 314 314 313 311 311 311 311 311 312 312 312 313 312 313 314 313 315 317 318 329 331 331 334 340 336 333 333 333 333 333 334 334 334 335 335 334 333 332
313 316 317 319 316 315 315 312 311 312 311 310 310 309 310 311 312 313 313 313 314 314 315 317 323 326 329 331 335 340 333 333 333 333 333 333 331 329 329 330 327 331 333 332
Wind_Speed
6 3 5 11 10 8 8 13 14 15 13 15 13 15 21 14 15 16 21 17 16 19 20 28 30 29 32 34 33 31 27 25 23 19 20 20 24 24 23 26 25 24 27 29
6 6 8 9 9 8 8 14 16 14 10 14 12 19 20 18 17 18 20 18 18 19 20 20 25 29 30 33 39 37 35 33 28 26 23 20 20 23 27 27 25 26 27 28
6 10 12 13 12 13 8 8 12 15 12 15 10 15 23 25 18 17 20 19 13 18 19 18 17 25 29 30 39 39 35 33 32 31 27 23 23 22 21 21 26 26 26 28
6 8 12 9 13 13 12 12 17 15 9 10 6 15 11 18 25 21 20 19 17 9 17 19 18 16 21 29 39 38 36 34 33 31 27 27 24 21 24 22 28 25 26 26
9 12 7 7 10 10 13 18 20 20 13 5 7 8 17 9 19 22 21 20 22 15 11 18 15 13 21 21 35 39 36 33 30 28 29 28 28 27 21 21 25 27 24 23
12 12 4 3 6 9 14 11 17 12 3 10 12 11 18 16 17 21 23 22 24 22 11 14 15 23 22 26 33 33 32 31 35 34 32 31 29 28 21 20 29 29 26 23
7 9 3 3 2 5 6 6 4 4 3 9 11 12 15 13 14 19 20 23 19 23 24 15 18 15 12 22 33 38 40 38 36 34 35 35 33 30 27 26 29 29 28 25
3 6 10 3 4 5 4 4 5 5 6 11 9 6 12 15 15 17 22 20 19 21 24 23 16 16 10 21 28 24 30 34 35 37 36 36 35 29 31 25 31 31 29 27
5 5 13 15 14 14 7 6 10 7 11 3 5 11 12 15 14 21 21 23 25 25 25 10 9 10 10 14 17 23 30 33 36 38 33 35 33 29 28 27 33 31 27 27
4 15 7 13 14 10 5 8 6 4 5 6 6 13 6 14 18 21 23 25 28 20 32 1 2 2 8 9 5 2 12 28 34 33 33 30 29 27 25 31 32 29 29 28
6 2 8 10 4 9 7 5 3 3 3 2 5 2 2 9 7 13 18 23 24 24 27 6 5 3 5 3 7 5 17 29 30 29 28 25 25 29 31 34 30 30 29 28
5 3 5 16 16 12 6 8 3 2 2 4 4 8 7 8 6 10 16 23 21 20 20 16 3 3 2 9 15 12 22 26 28 28 26 24 25 28 33 27 29 31 32 30
2 4 5 6 2 0 1 5 6 4 4 5 7 6 7 7 10 10 10 18 20 25 26 22 10 3 6 6 14 18 26 27 30 29 27 26 26 32 32 32 32 30 31 27
1 4 6 7 13 11 17 18 15 7 3 7 11 19 14 7 8 11 16 17 21 24 26 23 18 6 3 7 13 21 24 28 28 24 23 26 28 29 29 31 30 28 26 22
3 5 9 14 18 19 20 18 17 17 13 8 8 12 9 2 2 3 6 13 17 23 27 27 10 7 6 4 11 26 27 27 26 26 24 25 30 30 28 27 23 21 19 18
5 4 6 13 19 17 19 17 15 14 10 7 11 10 11 4 2 7 9 15 20 24 25 8 7 6 8 8 4 8 25 27 29 27 25 27 29 27 26 25 22 21 18 16
7 4 1 6 12 17 9 4 6 7 9 10 10 6 11 12 11 10 12 15 17 16 22 10 6 7 8 10 6 9 25 31 31 30 27 27 28 26 23 22 19 20 18 16
5 5 2 5 10 4 3 3 3 6 6 10 7 7 12 11 13 15 15 5 16 17 20 20 6 7 15 22 19 24 31 31 31 29 27 27 26 25 23 20 20 18 19 17
6 4 2 2 2 13 11 4 3 5 6 4 4 8 13 14 13 12 4 9 12 15 16 17 18 14 7 19 36 7 27 33 30 25 24 25 25 27 26 23 22 18 18 21
10 7 2 2 3 4 4 2 5 2 4 8 7 7 6 12 10 9 17 16 19 18 14 16 27 26 15 8 14 10 22 26 24 25 26 25 30 30 26 27 23 22 22 21
3 2 5 5 5 7 2 4 6 2 5 8 5 5 7 7 8 15 18 16 15 18 17 26 23 19 20 24 12 15 20 19 26 29 29 28 29 24 24 25 26 22 20 19
2 4 4 3 3 7 6 2 3 7 6 6 6 8 8 7 11 12 16 15 17 14 19 23 17 19 22 25 14 9 12 23 29 27 29 32 30 27 27 25 21 20 22 20
3 4 3 5 5 4 1 8 13 12 15 6 6 6 8 8 12 13 12 16 16 15 13 23 18 18 20 24 24 8 10 25 29 35 32 32 28 27 23 21 20 20 21 21
5 7 5 10 2 1 8 11 6 3 5 8 8 9 6 12 13 12 15 14 15 14 12 20 16 13 13 23 24 23 12 28 35 30 30 31 28 24 22 21 22 22 21 22
11 10 8 12 17 5 4 4 2 6 7 9 10 9 11 14 15 15 14 14 15 13 17 15 15 7 10 24 26 22 16 34 33 32 30 29 29 26 22 20 17 20 19 21
3 4 3 3 15 6 7 6 3 5 6 8 11 14 13 13 14 15 15 13 11 10 15 13 14 10 15 17 20 15 25 38 34 27 26 26 26 23 25 26 19 15 17 14
Wind_Direction
321 355 257 241 242 255 290 299 295 303 324 326 302 292 294 305 298 304 260 238 223 227 239 255 261 273 256 216 198 177 175 167 176 192 210 216 221 230 239 242 239 234 230 227
319 232 250 312 322 322 317 306 301 303 297 289 307 300 294 297 291 292 292 279 231 217 226 237 251 257 256 222 192 187 190 190 188 200 222 236 248 252 256 255 234 226 227 224
323 295 321 320 316 313 281 271 290 286 289 282 301 287 295 294 286 285 286 281 275 226 209 223 238 242 252 211 195 189 189 196 205 213 222 235 231 250 247 250 224 220 219 204
292 291 300 342 327 321 305 316 311 300 283 274 226 277 261 290 294 294 294 295 276 264 244 225 234 242 214 196 189 189 192 199 210 214 222 231 228 230 241 240 216 207 201 198
260 283 281 274 298 355 311 333 304 300 285 312 282 281 285 298 290 292 288 286 290 264 228 235 222 216 221 218 195 196 198 206 210 218 224 226 226 238 235 225 199 185 186 193
247 252 52 70 6 320 315 338 310 287 273 266 276 253 273 272 274 271 278 281 286 289 255 224 229 216 222 211 202 200 203 210 217 217 219 224 226 231 217 202 184 187 186 192
350 335 119 92 356 284 341 6 338 328 315 269 280 281 272 274 294 296 297 295 300 288 281 266 224 226 210 202 194 200 202 209 217 221 224 224 223 222 214 206 184 181 185 189
275 330 318 35 224 236 276 200 210 252 268 280 295 257 277 279 283 285 280 296 282 279 280 275 220 206 205 214 224 209 208 214 221 224 223 221 214 214 213 210 188 181 186 191
348 311 325 323 322 321 280 265 263 288 286 287 252 266 274 349 9 350 345 340 335 335 291 240 201 173 181 194 212 226 227 220 224 223 211 211 203 209 211 198 187 186 189 190
315 306 289 317 328 305 245 287 324 4 315 290 291 287 290 9 354 348 344 339 325 322 316 344 5 170 134 140 152 348 241 211 207 202 195 193 195 198 203 187 183 184 189 186
9 25 304 314 288 325 5 356 41 180 241 246 275 284 90 50 16 336 331 328 324 326 319 306 241 139 126 201 241 256 195 187 180 178 180 180 188 196 182 179 181 186 182 179
19 266 292 298 288 138 162 235 244 219 217 264 233 268 122 122 65 21 324 327 322 310 318 300 99 99 261 244 245 231 188 168 171 169 170 179 187 187 177 172 166 175 171 172
22 310 318 307 129 177 203 242 241 237 241 239 283 271 241 67 25 20 5 323 322 315 302 335 318 338 294 268 250 199 154 153 161 170 173 174 164 162 153 144 145 154 153 157
233 215 218 256 269 274 281 285 282 181 229 276 271 306 12 40 2 36 12 316 320 305 313 309 295 312 315 319 169 145 150 155 163 167 166 143 144 146 143 144 144 144 148 155
179 245 258 275 283 286 286 291 298 299 242 251 314 280 354 127 280 89 313 291 286 297 296 283 288 355 284 265 222 153 147 150 157 143 132 135 144 144 147 146 143 145 155 163
145 266 307 294 286 268 268 271 259 281 331 351 315 314 3 38 280 274 263 278 283 283 298 312 357 11 346 335 116 171 142 138 136 130 134 143 144 147 146 145 147 154 167 166
209 201 9 263 310 304 291 59 4 320 341 335 297 331 340 333 318 316 318 311 313 332 339 331 353 347 12 331 346 148 141 138 139 136 139 143 147 146 148 156 164 158 157 156
179 124 141 277 303 286 125 71 282 322 328 339 325 332 322 325 311 300 295 313 316 330 330 328 332 7 38 349 311 168 133 132 130 136 142 150 152 153 155 157 160 163 160 173
136 163 203 257 277 269 280 86 0 340 312 272 203 319 318 311 308 295 291 331 311 315 318 320 328 326 344 29 312 148 133 133 136 141 150 159 156 153 157 158 157 164 167 157
82 87 133 19 277 262 258 54 21 109 263 182 193 274 344 325 309 306 322 328 322 309 312 315 319 318 316 333 325 265 138 135 145 151 155 162 156 160 164 166 164 160 165 160
169 176 228 236 242 275 12 47 42 86 237 202 192 254 274 270 275 300 302 304 298 295 303 309 319 326 336 319 181 226 143 150 152 151 159 155 157 159 162 162 159 161 164 162
245 192 203 222 235 267 176 110 198 237 298 259 190 215 245 263 280 285 288 290 290 303 304 308 309 316 318 325 291 193 131 150 145 145 134 134 143 140 146 146 154 157 157 156
310 162 217 198 234 238 244 232 236 257 278 281 281 224 246 253 279 282 281 288 295 290 289 299 303 315 309 327 307 169 171 137 123 125 125 130 134 140 143 142 147 152 160 156
298 311 291 309 256 252 237 259 280 339 329 315 305 302 315 292 291 284 275 273 278 280 286 296 320 312 331 321 292 201 179 134 126 126 126 131 131 139 143 148 156 158 158 157
272 297 315 274 286 292 271 343 329 330 318 314 314 303 297 288 285 276 269 268 264 277 281 295 302 306 314 304 302 197 172 132 128 128 128 130 134 132 140 142 151 159 164 170
228 204 257 288 291 247 268 254 78 318 317 311 300 298 290 283 277 275 273 269 265 273 285 292 284 308 298 285 265 212 146 134 132 132 133 137 134 133 129 128 117 144 151 166